Content
SEND FEEDBACK

Daily
Averages
Monthly
Summary
United States of America

MARKSVILLE, LOUISIANA


Home > North America > United States > Louisiana
Elevation: 23 meters     Latitude: 31 05N     Longitude: 092 04W

WEATHER
 
SELECT A DAY
Number of Records: 218,753;   Date Range: 1/1/95 - 7/27/14
 
SHARE

PRINT THIS DATA

[ ← Previous Day ]
WEATHER ALMANAC - 23 JANUARY, 2013
[ Next Day → ]
[ °F ]   °C
Weather ElementAverageHighLow
Temperature10.4 °C23.3 °C (2:53 pm)-3 °C (11:50 am)
Dewpoint5.8 °C11.1 °C (7:53 pm)-16 °C (11:50 am)
Humidity77.4 %97 % (8:53 am)37 % (11:50 am)
Barometer1026.4 hPa1028.4 hPa (9:24 am)1024 hPa (5:53 pm)
Wind Speed5.5 km/h20.4 km/h (11:50 am)
Wind Gust38.9 km/h (11:50 am)
Weather ElementAverage
Visibility11.7 km
Wind DirectionESE (106.8 °)

Weather ElementTotal
Precipitation---
Heating Degree Days8.2 (Base 18.3)
Growing Degree Days0.2 (Base 10)
Averaged from 34 records on 23 January, 2013
WEATHER CONDITIONS BREAKOUT
WIND DIRECTION BREAKOUT
WEATHER BY HOUR - 23 JANUARY, 2013
[ °F ]   °C
Local TimeTemperatureDewpointHumidityBarometerVisibilityWind DirectionWind SpeedGust SpeedPrecipitationEventsConditions
1:53 AM4.4 °C2.8 °C89 %1026.1 hPa12.9 kmCalmClear
2:53 AM3.3 °C2.2 °C93 %1026.4 hPa8 kmCalmClear
3:23 AM3 °C2 °C93 %1026.4 hPa4 kmCalmClear
3:31 AM3 °C2 °C93 %1026.4 hPa11.3 kmCalmClear
3:53 AM3.3 °C2.2 °C93 %1026.1 hPa14.5 kmCalmClear
4:53 AM3.3 °C2.2 °C93 %1026.4 hPa12.9 kmCalmClear
5:53 AM3.9 °C2.8 °C93 %1027.4 hPa11.3 kmCalmOvercast
6:53 AM4.4 °C2.8 °C89 %1027.4 hPa16.1 kmCalmOvercast
7:06 AM4 °C3 °C93 %1027.4 hPa16.1 kmCalmMostly Cloudy
7:19 AM4 °C3 °C93 %1027.8 hPa16.1 kmCalmMostly Cloudy
7:43 AM4 °C3 °C93 %1027.8 hPa2.4 kmCalmOvercast
7:48 AM4 °C3 °C93 %1027.8 hPa0.3 kmCalmFogFog
7:53 AM4.4 °C3.3 °C93 %1027.8 hPa0.3 kmCalmFogFog
8:53 AM7.2 °C6.7 °C97 %1028.1 hPa0.3 kmCalmFogFog
9:03 AM8 °C7 °C93 %1028.1 hPa0.3 kmCalmFogFog
9:19 AM9 °C8 °C93 %1028.1 hPa1.6 kmSSW (200°)5.6 km/hOvercast
9:24 AM10 °C9 °C94 %1028.4 hPa6.4 kmSSW (210°)5.6 km/hMostly Cloudy
9:34 AM10 °C9 °C94 %1028.4 hPa16.1 kmSW (220°)7.4 km/hMostly Cloudy
9:53 AM11.7 °C9.4 °C86 %1028.4 hPa16.1 kmSW (220°)9.3 km/hMostly Cloudy
10:53 AM17.8 °C7.2 °C50 %1028.1 hPa16.1 kmSSW (200°)11.1 km/hClear
11:50 AM-3 °C-16 °C37 %1025.7 hPa16.1 kmWNW (300°)20.4 km/h38.9 km/hScattered Clouds
11:53 AM19.4 °C8.9 °C51 %1027.1 hPa16.1 kmSW (220°)9.3 km/hClear
12:53 PM21.1 °C8.9 °C46 %1026.1 hPa16.1 kmWSW (240°)18.5 km/hMostly Cloudy
1:53 PM22.8 °C8.3 °C39 %1025.1 hPa16.1 kmSSW (210°)13 km/hPartly Cloudy
2:53 PM23.3 °C7.8 °C37 %1024.7 hPa16.1 kmSW (230°)14.8 km/hClear
3:53 PM22.8 °C7.8 °C38 %1024.4 hPa16.1 kmSouth (180°)18.5 km/hClear
4:53 PM21.7 °C8.3 °C42 %1024.4 hPa16.1 kmSSW (210°)14.8 km/hClear
5:53 PM18.9 °C10 °C56 %1024 hPa16.1 kmSSW (200°)7.4 km/hClear
6:53 PM17.2 °C10.6 °C65 %1024.4 hPa16.1 kmSouth (190°)9.3 km/hClear
7:53 PM16.7 °C11.1 °C70 %1024.7 hPa16.1 kmSSW (200°)7.4 km/hClear
8:53 PM15 °C11.1 °C78 %1025.1 hPa16.1 kmSouth (190°)5.6 km/hClear
9:53 PM13.9 °C11.1 °C83 %1025.1 hPa16.1 kmSSW (210°)7.4 km/hClear
10:53 PM11.1 °C9.4 °C89 %1025.1 hPa16.1 kmCalmClear
11:53 PM10.6 °C9.4 °C92 %1025.1 hPa9.7 kmCalmClear
Hourly data recorded from KESF, located 0 kilometers away from Marksville, Louisiana







STORIES FROM OUR PARTNERS